User: anonymous   Login
Location: Theydon Bois
(51.6750°N, 0.1050°E)
Time: 21:52:47
(UTC+01:00)
Language:

SPOT 5 - Orbit

View from above orbital plane
View from above orbital plane
View from above satellite
View from above satellite

Ground track
Ground track

The orbit data is extracted from the following two-line orbital elements,

1 27421U 02021A   17290.12746104  .00000037  00000-0  20078-4 0  9996
2 27421  98.3926 353.4668 0134509 315.6487  43.4005 14.51890568803369
Epoch (UTC): 17 October 2017 03:03:32
Eccentricity: 0.0134509
inclination: 98.3926°
perigee height: 624 km
apogee height: 815 km
right ascension of ascending node: 353.4668°
argument of perigee: 315.6487°
revolutions per day: 14.51890568
mean anomaly at epoch: 43.4005°
orbit number at epoch: 80336

The dashed part of the orbit path shows where the satellite is in the earth's shadow,  

DLR